STARLINK-11197 [DTC]

Last updated on Sat Aug 03 2024 00:02:04 GMT+0000 (Coordinated Universal Time)

1 60186U 24124D 24215.57456616 .00008750 00000+0 57428-4 0 9997 2 60186 53.1578 161.3563 0001059 103.4182 256.6957 15.76718823 4788
UTC large
Height (km)
Speed (km/s)
/
Latitude / Longitude
Inclination (degrees)
Orbital Period (minutes)
Azimuth
Elevation
Range (km)
Doppler Factor

Next 0 passes for location: London (51.5072 / 0.1276)

Sorry there are no passes over London.